Location: Unspecified
(0.0000°N, 0.0000°E)
Time: 01:56:18
(UTC+00:00)

SR - Pass Details

Date: 02 October 2020
Orbit: 581 x 874 km, 66.7° (Epoch: 25 October)

Event Time Altitude Azimuth Distance (km) Brightness Sun altitude
Rises 19:13:57 0° 329° (NNW) 3,212 ? -21.2°
Reaches altitude 10° 19:16:20 10° 324° (NW) 2,332 ? -21.8°
Maximum altitude 19:21:32 49° 250° (WSW) 1,048 ? -23.0°
Drops below altitude 10° 19:27:06 10° 176° (S) 2,487 ? -24.4°
Sets 19:29:42 0° 170° (S) 3,445 ? -25.1°
